Location: *
(34.0486°S, 61.7880°E)
Time: 17:00:03
(UTC+00:00)

Meteor 2-10 - Pass Details

Date: 01 April 2020
Orbit: 738 x 869 km, 81.2° (Epoch: 26 May)

Event Time Altitude Azimuth Distance (km) Brightness Sun altitude
Rises 15:21:48 0° 192° (SSW) 3,204 7.5 -20.3°
Reaches altitude 10° 15:24:09 10° 195° (SSW) 2,274 6.7 -20.8°
Maximum altitude 15:29:11 66° 276° (W) 820 4.3 -21.9°
Drops below altitude 10° 15:34:14 10° 357° (N) 2,277 6.4 -22.9°
Sets 15:36:36 0° 359° (N) 3,209 7.1 -23.4°
